Regional Weather Roundup
Issued by NWS

Home | Current Version | Previous Version | Text Only | Print | Product List | Glossary On
Versions: 1 2 3 4 5 6 7 8 9 10 11 12 13 14 15 16 17 18 19 20 21 22 23 24 25 26 27 28 29 30 31 32 33 34 35 36 37 38 39 40 41 42 43 44 45 46 47 48 49 50
000
ASUS43 KLOT 201912
RWRIL

ILLINOIS REGIONAL WEATHER ROUNDUP
NATIONAL WEATHER SERVICE CHICAGO/ROMEOVILLE IL
100 PM CST FRI JAN 20 2017

NOTE: "FAIR" INDICATES FEW OR NO CLOUDS BELOW 12,000 FEET WITH NO
SIGNIFICANT WEATHER AND/OR OBSTRUCTIONS TO VISIBILITY.

* THESE STATIONS ARE NOT UNDER NWS QUALITY CONTROL. THEY ALSO MAY NOT
  REPORT WEATHER SUCH AS PRECIPITATION OR FOG.

ILZ001-002-007-009-015-016-024-202000-
NORTHWEST ILLINOIS

CITY           SKY/WX    TMP DP  RH WIND       PRES   REMARKS
MOLINE         CLOUDY    45  41  86 S5        29.57F
STERLING*      CLOUDY    41  40  96 SE5       29.60F FOG
SAVANNA*       CLOUDY    40  39  97 SE3       29.59F FOG
$$

ILZ003-004-008-010-011-017-018-202000-
NORTH CENTRAL ILLINOIS

CITY           SKY/WX    TMP DP  RH WIND       PRES   REMARKS
ROCKFORD       CLOUDY    41  39  93 SE5       29.63F FOG
FREEPORT*      CLOUDY    39  38  99 E6        29.62F FOG     WCI  34
ROCHELLE*      CLOUDY    40  40  98 S7        29.62F FOG
DE KALB*       FOG       40  40  98 SE6       29.62F VSB 3/4
$$

ILZ005-006-012>014-019>023-202000-
NORTHEAST ILLINOIS

CITY           SKY/WX    TMP DP  RH WIND       PRES   REMARKS
CHICAGO-OHARE  DRIZZLE   41  39  93 CALM      29.62F FOG
CHICAGO-MIDWAY CLOUDY    40  39  97 CALM      29.63F FOG
AURORA         CLOUDY    42  40  92 SE6       29.62F FOG
LANSING*       CLOUDY    41  41 100 CALM      29.64S FOG
JOLIET*        CLOUDY    44  43  96 CALM      29.62F
WAUKEGAN       FOG       38  37  97 E5        29.63F VSB 1/2 WCI  34
DUPAGE AIRPORT CLOUDY    41  38  89 E5        29.61F FOG
KANKAKEE*      CLOUDY    45  44  97 CALM      29.64F
WHEELING       CLOUDY    40  38  93 NE5       29.64F FOG
MORRIS*        CLOUDY    43  41  95 CALM      29.61F FOG
ROMEOVILLE*    CLOUDY    41  41 100 S3        29.63F FOG
NORTHERLY ISL    N/A     37  36  96 NE2         N/A
$$

LMZ740>746-202000-
SOUTHERN LAKE MICHIGAN

STATION/POSITION SKY/WX   TEMP    WIND        PRES    VSBY  WAVE
                          AIR SEA DIR/SP/G                  HT/PER
                          (F)     (DEG/KT/KT) (MB)    (MI)  (FT/S)
HARRISON CRIB              39     150/  5/  5   N/A
BURNHAM HARBOR             37      CALM  /  5   N/A
CALUMET HARBOR             38     110/  1/  2 1003.2F
BURNS HARBOR               42     210/  6/  8 1004.4F
MICHIGAN CITY              38     240/  4/  4   N/A
$$

ILZ025>027-034>036-040-047-049-050-058-095>099-202000-
WEST-CENTRAL ILLINOIS

CITY           SKY/WX    TMP DP  RH WIND       PRES   REMARKS
QUINCY         CLOUDY    47  46  97 SE7       29.56F
GALESBURG*     CLOUDY    45  45 100 SE6       29.58R
MACOMB*        CLOUDY    46  46 100 S10       29.61S
JACKSONVILLE*  CLOUDY    48  47  99 S5        29.59F FOG
PITTSFIELD*    CLOUDY    48  48  99 NE7       29.59F FOG
$$

ILZ028>032-037-038-041>044-048-051>054-059>061-202000-
CENTRAL ILLINOIS

CITY           SKY/WX    TMP DP  RH WIND       PRES   REMARKS
PONTIAC        CLOUDY    47  47 100 S5        29.62F FOG
BLOOMINGTON    CLOUDY    46  45  96 S13       29.61F
DECATUR        CLOUDY    49  49 100 S9        29.61F
PEORIA         CLOUDY    46  45  96 S3        29.60F
LACON*         CLOUDY    42  42  99 CALM      29.59F
LINCOLN*       CLOUDY    49  49  98 S7        29.61F
SPRINGFIELD    CLOUDY    49  48  97 SE6       29.61S FOG
TAYLORVILLE    CLOUDY    51  50  97 S9        29.60F
$$

ILZ033-039-045-046-055>057-062-063-202000-
EAST-CENTRAL ILLINOIS

CITY           SKY/WX    TMP DP  RH WIND       PRES   REMARKS
CHAMPAIGN      CLOUDY    48  47  96 S7        29.63F FOG
RANTOUL*       CLOUDY    50  48  93 S6        29.63F
MATTOON        CLOUDY    50  48  93 S8        29.63F
PARIS*         CLOUDY    50  49  97 S7        29.66F
$$

ILZ079-100>102-202000-
SOUTHWEST ILLINOIS

CITY           SKY/WX    TMP DP  RH WIND       PRES   REMARKS
ALTON          CLOUDY    52  46  82 S12       29.60F
BELLEVILLE     CLOUDY    53  53  99 VRB6      29.60F
CAHOKIA*       CLOUDY    53  47  79 S9G17     29.59F
SPARTA*        CLOUDY    54  50  86 S8        29.63S
$$

ILZ064>066-069>071-074>076-080>082-084>086-088>090-092>094-202000-
SOUTH-CENTRAL ILLINOIS

CITY           SKY/WX    TMP DP  RH WIND       PRES   REMARKS
CARBONDALE     CLOUDY    56  54  93 S13       29.64F
CAIRO*         CLOUDY    57  55  92 S6        29.65F
EFFINGHAM*     CLOUDY    53  51  92 S9        29.65F
MARION         CLOUDY    57  57 100 S12       29.65
MT. VERNON     CLOUDY    57  51  80 S13       29.63F
CENTRALIA*     CLOUDY    56  51  85 S13       29.62F
SALEM*         CLOUDY    56  49  78 S7        29.62F
METROPOLIS*    CLOUDY    60  55  82 S8        29.66F
$$

ILZ067-068-072-073-078-083-087-091-202000-
SOUTHEAST ILLINOIS

CITY           SKY/WX    TMP DP  RH WIND       PRES   REMARKS
LAWRENCEVILLE  CLOUDY    57  51  80 S13       29.67F
FLORA*         CLOUDY    57  51  80 S8        29.63F
FAIRFIELD*     CLOUDY    58  52  80 S8        29.63F
HARRISBURG*    CLOUDY    58  54  88 S10G16    29.65F
ROBINSON*      PTSUNNY   53  48  83 SW9       29.68F
CARMI*         CLOUDY    58  53  84 S13       29.65F
$$

ABBREVIATIONS USED IN REMARKS
   TC - TEMPERATURE IN CELSIUS
  WCI - WIND CHILL INDEX
   HX - HEAT INDEX
  VSB - VISIBILITY
$$




USA.gov is the U.S. government's official web portal to all federal, state and local government web resources and services.